When you browse on this site, cookies collect data to enhance your experience and personalize the content and advertising you see.
Visit our Privacy Policy to learn more. By continuing to use the site, you agree to this use of cookies and data.
  • în România
  • Lista ţărilor
  • Pe 7 zile
  • Temperatura apei
  • Hartă satelitară
  • Meteo pe hartă
  • Widget-uri
  • user-avatar
    Intrare

    Meteo pe oră la Aci Bonaccorsi

    Astăzi, 25 Aprilie, Joi

    Timp Temperatura Precipitaţii Vânt Presiune Umiditate
    00:00 +16°C° 0 mm 1 m/s 735 mmHg 78%
    01:00 +15°C° 0 mm 1 m/s 735 mmHg 76%
    02:00 +15°C° 0 mm 1 m/s 735 mmHg 77%
    03:00 +15°C° 0 mm 1 m/s 735 mmHg 78%
    04:00 +15°C° 0 mm 2 m/s 735 mmHg 78%
    05:00 +16°C° 0 mm 2 m/s 735 mmHg 75%
    06:00 +18°C° 0 mm 1 m/s 735 mmHg 72%
    07:00 +20°C° 0 mm 1 m/s 735 mmHg 70%
    08:00 +20°C° 0.1 mm 2 m/s 735 mmHg 65%
    09:00 +23°C° 0.1 mm 2 m/s 735 mmHg 60%
    10:00 +24°C° 0.1 mm 3 m/s 735 mmHg 55%
    11:00 +25°C° 0 mm 3 m/s 735 mmHg 54%
    12:00 +25°C° 0 mm 4 m/s 735 mmHg 54%
    13:00 +26°C° 0 mm 4 m/s 735 mmHg 53%
    14:00 +25°C° 0 mm 4 m/s 735 mmHg 56%
    15:00 +24°C° 0 mm 3 m/s 735 mmHg 59%
    16:00 +24°C° 0 mm 3 m/s 735 mmHg 62%
    17:00 +21°C° 0.1 mm 2 m/s 735 mmHg 69%
    18:00 +20°C° 0.1 mm 1 m/s 735 mmHg 76%
    19:00 +18°C° 0.1 mm 1 m/s 735 mmHg 83%
    20:00 +18°C° 0 mm 1 m/s 736 mmHg 84%
    21:00 +18°C° 0 mm 1 m/s 736 mmHg 84%
    22:00 +16°C° 0 mm 0 m/s 736 mmHg 85%
    23:00 +15°C° 0 mm 0 m/s 736 mmHg 84%

    Mâine, 26 Aprilie, Vineri

    Timp Temperatura Precipitaţii Vânt Presiune Umiditate
    00:00 +15°C° 0 mm 0 m/s 736 mmHg 83%
    01:00 +15°C° 0 mm 0 m/s 736 mmHg 82%
    02:00 +16°C° 0 mm 1 m/s 736 mmHg 81%
    03:00 +16°C° 0 mm 1 m/s 736 mmHg 79%
    04:00 +16°C° 0 mm 1 m/s 736 mmHg 78%
    05:00 +18°C° 0 mm 1 m/s 736 mmHg 75%
    06:00 +19°C° 0 mm 1 m/s 736 mmHg 71%
    07:00 +19°C° 0 mm 0 m/s 736 mmHg 67%
    08:00 +23°C° 0 mm 1 m/s 737 mmHg 60%
    09:00 +25°C° 0 mm 2 m/s 737 mmHg 53%
    10:00 +27°C° 0 mm 2 m/s 737 mmHg 46%
    11:00 +27°C° 0 mm 2 m/s 737 mmHg 45%
    12:00 +28°C° 0 mm 2 m/s 737 mmHg 43%
    13:00 +29°C° 0 mm 3 m/s 737 mmHg 41%
    14:00 +28°C° 0.1 mm 3 m/s 737 mmHg 44%
    15:00 +28°C° 0.1 mm 2 m/s 736 mmHg 47%
    16:00 +27°C° 0.1 mm 2 m/s 736 mmHg 50%
    17:00 +25°C° 0.2 mm 2 m/s 736 mmHg 58%
    18:00 +23°C° 0.2 mm 1 m/s 736 mmHg 65%
    19:00 +21°C° 0.2 mm 1 m/s 736 mmHg 73%
    20:00 +20°C° 0.4 mm 1 m/s 736 mmHg 75%
    21:00 +20°C° 0.4 mm 1 m/s 736 mmHg 77%
    22:00 +19°C° 0.4 mm 1 m/s 737 mmHg 79%
    23:00 +18°C° 0.4 mm 2 m/s 736 mmHg 80%

    Poimâine, 27 Aprilie, Sâmbătă

    Timp Temperatura Precipitaţii Vânt Presiune Umiditate
    00:00 +18°C° 0.4 mm 2 m/s 736 mmHg 80%
    01:00 +17°C° 0.4 mm 2 m/s 736 mmHg 81%
    02:00 +17°C° 0.1 mm 2 m/s 736 mmHg 80%
    03:00 +17°C° 0.1 mm 3 m/s 735 mmHg 80%
    04:00 +17°C° 0.1 mm 3 m/s 735 mmHg 80%
    05:00 +17°C° 0.2 mm 3 m/s 735 mmHg 76%
    06:00 +18°C° 0.2 mm 3 m/s 736 mmHg 72%
    07:00 +18°C° 0.2 mm 4 m/s 736 mmHg 69%
    08:00 +20°C° 0 mm 4 m/s 736 mmHg 62%
    09:00 +22°C° 0 mm 4 m/s 737 mmHg 55%
    10:00 +23°C° 0 mm 4 m/s 737 mmHg 47%
    11:00 +25°C° 0 mm 5 m/s 737 mmHg 45%
    12:00 +25°C° 0 mm 5 m/s 737 mmHg 43%
    13:00 +26°C° 0 mm 5 m/s 737 mmHg 41%
    14:00 +25°C° 0 mm 5 m/s 737 mmHg 41%
    15:00 +25°C° 0 mm 4 m/s 737 mmHg 41%
    16:00 +23°C° 0 mm 4 m/s 736 mmHg 42%
    17:00 +21°C° 0 mm 4 m/s 736 mmHg 48%
    18:00 +19°C° 0 mm 4 m/s 736 mmHg 55%
    19:00 +15°C° 0 mm 4 m/s 737 mmHg 62%
    20:00 +15°C° 0 mm 4 m/s 737 mmHg 61%
    21:00 +14°C° 0 mm 4 m/s 737 mmHg 61%
    22:00 +13°C° 0 mm 3 m/s 737 mmHg 60%
    23:00 +12°C° 0 mm 3 m/s 737 mmHg 60%

    28 Aprilie, Duminică

    Timp Temperatura Precipitaţii Vânt Presiune Umiditate
    00:00 +12°C° 0 mm 3 m/s 737 mmHg 59%
    01:00 +11°C° 0 mm 3 m/s 737 mmHg 59%
    02:00 +12°C° 0 mm 2 m/s 737 mmHg 59%
    03:00 +12°C° 0 mm 2 m/s 736 mmHg 59%
    04:00 +12°C° 0 mm 2 m/s 736 mmHg 59%
    05:00 +13°C° 0 mm 2 m/s 736 mmHg 56%
    06:00 +14°C° 0 mm 2 m/s 736 mmHg 54%
    07:00 +16°C° 0 mm 2 m/s 736 mmHg 51%
    08:00 +19°C° 0 mm 1 m/s 736 mmHg 46%
    09:00 +21°C° 0 mm 1 m/s 736 mmHg 41%
    10:00 +23°C° 0 mm 1 m/s 736 mmHg 35%
    11:00 +24°C° 0 mm 2 m/s 736 mmHg 34%
    12:00 +25°C° 0 mm 2 m/s 736 mmHg 33%
    13:00 +26°C° 0 mm 2 m/s 736 mmHg 32%
    14:00 +25°C° 0 mm 3 m/s 735 mmHg 33%
    15:00 +24°C° 0 mm 3 m/s 735 mmHg 34%
    16:00 +24°C° 0 mm 3 m/s 735 mmHg 36%
    17:00 +20°C° 0 mm 3 m/s 735 mmHg 43%
    18:00 +18°C° 0 mm 2 m/s 735 mmHg 51%
    19:00 +16°C° 0 mm 2 m/s 735 mmHg 58%
    20:00 +15°C° 0 mm 2 m/s 735 mmHg 55%
    21:00 +14°C° 0 mm 2 m/s 735 mmHg 52%
    22:00 +13°C° 0 mm 2 m/s 735 mmHg 49%
    23:00 +13°C° 0 mm 2 m/s 735 mmHg 45%

    29 Aprilie, Luni

    Timp Temperatura Precipitaţii Vânt Presiune Umiditate
    00:00 +13°C° 0 mm 2 m/s 735 mmHg 41%
    01:00 +13°C° 0 mm 2 m/s 734 mmHg 37%
    02:00 +12°C° 0 mm 2 m/s 734 mmHg 37%
    03:00 +12°C° 0 mm 2 m/s 734 mmHg 36%
    04:00 +12°C° 0 mm 2 m/s 734 mmHg 36%
    05:00 +13°C° 0 mm 2 m/s 734 mmHg 38%
    06:00 +15°C° 0 mm 1 m/s 734 mmHg 39%
    07:00 +16°C° 0 mm 1 m/s 734 mmHg 41%
    08:00 +19°C° 0 mm 1 m/s 734 mmHg 38%
    09:00 +21°C° 0 mm 1 m/s 734 mmHg 35%
    10:00 +23°C° 0 mm 2 m/s 735 mmHg 32%
    11:00 +24°C° 0 mm 2 m/s 734 mmHg 32%
    12:00 +25°C° 0 mm 2 m/s 734 mmHg 32%
    13:00 +26°C° 0 mm 3 m/s 734 mmHg 32%
    14:00 +25°C° 0 mm 3 m/s 733 mmHg 35%
    15:00 +25°C° 0 mm 3 m/s 733 mmHg 38%
    16:00 +24°C° 0 mm 3 m/s 733 mmHg 41%
    17:00 +21°C° 0 mm 3 m/s 733 mmHg 51%
    18:00 +19°C° 0 mm 3 m/s 733 mmHg 61%
    19:00 +16°C° 0 mm 3 m/s 733 mmHg 71%
    20:00 +16°C° 0 mm 2 m/s 733 mmHg 75%
    21:00 +15°C° 0 mm 2 m/s 734 mmHg 78%
    22:00 +14°C° 0 mm 2 m/s 734 mmHg 81%
    23:00 +14°C° 0 mm 2 m/s 734 mmHg 80%

    30 Aprilie, Marţi

    Timp Temperatura Precipitaţii Vânt Presiune Umiditate
    00:00 +13°C° 0 mm 2 m/s 734 mmHg 80%
    01:00 +13°C° 0 mm 2 m/s 733 mmHg 79%
    02:00 +12°C° 0 mm 2 m/s 733 mmHg 74%
    03:00 +12°C° 0 mm 2 m/s 733 mmHg 69%
    04:00 +12°C° 0 mm 2 m/s 733 mmHg 64%
    05:00 +13°C° 0 mm 2 m/s 733 mmHg 59%
    06:00 +14°C° 0 mm 2 m/s 734 mmHg 53%
    07:00 +15°C° 0 mm 1 m/s 734 mmHg 48%
    08:00 +17°C° 0 mm 2 m/s 734 mmHg 43%
    09:00 +20°C° 0 mm 2 m/s 734 mmHg 38%
    10:00 +23°C° 0 mm 2 m/s 734 mmHg 33%
    11:00 +23°C° 0 mm 2 m/s 734 mmHg 33%
    12:00 +24°C° 0 mm 3 m/s 734 mmHg 33%
    13:00 +24°C° 0 mm 3 m/s 734 mmHg 33%
    14:00 +23°C° 0 mm 4 m/s 733 mmHg 36%
    15:00 +22°C° 0 mm 4 m/s 733 mmHg 39%
    16:00 +22°C° 0 mm 4 m/s 733 mmHg 42%
    17:00 +20°C° 0 mm 3 m/s 733 mmHg 51%
    18:00 +18°C° 0 mm 3 m/s 732 mmHg 59%
    19:00 +16°C° 0 mm 2 m/s 732 mmHg 68%
    20:00 +15°C° 0 mm 2 m/s 733 mmHg 71%
    21:00 +15°C° 0 mm 1 m/s 733 mmHg 75%
    22:00 +13°C° 0 mm 0 m/s 733 mmHg 78%
    23:00 +13°C° 0.1 mm 0 m/s 733 mmHg 77%
    Arată mai mult